Zurück zum Katalog

COSMOS 374 DEB

AktivLEO
NORAD 4711·DEBRIS·🇷🇺 Russia

Gestartet Oct 23, 1970 von Baikonur Cosmodrome

Loading…

Nächste Überflüge (nächste 24 Stunden)

TLE

AktuellSource: Space-Track

Epoche: Sep 14, 2026, 05:11 UTC

1 04711U 70089S   26257.21610135  .00000805  00000-0  22770-3 0  9992
2 04711  63.1161 337.6039 0815295  83.6788 285.6356 13.38856268666692

Verfolge COSMOS 374 DEB in Echtzeit mit AllMySat

Download on the App Store